Temp
13 13 15 16 16 17 18 18 18 15 18 18 17 18 18 17 16 17 16 14 14 13 13 12 12 10 9 11 10 10 9 9 9 9 8 8 8 8 8 7 7 8 8 7
14 14 15 16 17 17 18 18 18 18 18 18 17 18 18 18 16 16 16 15 14 14 13 12 11 11 10 10 11 10 10 9 9 8 8 8 8 7 7 6 6 6 8 7
15 16 16 16 17 17 17 17 18 18 18 18 18 18 18 17 17 15 16 16 15 14 13 12 11 12 10 9 10 11 10 10 9 9 8 8 8 7 6 6 6 6 7 7
15 16 17 16 16 17 17 17 17 17 18 18 18 19 19 17 17 15 13 15 15 14 13 12 11 11 11 11 10 10 11 11 10 9 8 8 7 6 6 6 6 6 7 7
16 16 16 16 17 17 17 18 17 17 17 17 18 18 18 16 15 15 14 12 15 14 13 12 12 11 11 11 10 10 10 11 11 10 9 8 7 6 6 6 6 6 6 6
16 17 17 17 17 17 17 17 16 16 17 18 18 18 17 16 15 16 16 15 14 13 12 12 11 11 11 10 11 11 10 11 11 10 9 8 7 6 6 6 7 6 6 7
16 16 16 16 17 17 16 16 17 17 17 18 18 18 18 17 16 16 15 14 13 12 12 12 11 11 10 11 11 10 10 10 10 10 9 8 7 6 7 7 7 7 7 7
16 17 16 17 16 17 17 16 17 17 18 17 16 15 16 17 16 16 15 14 13 12 12 12 11 10 10 11 10 10 10 10 10 10 9 8 7 7 6 7 6 7 6 7
17 18 18 17 16 16 17 17 17 17 17 18 16 16 16 16 15 16 15 14 13 12 12 12 10 9 11 11 10 10 10 10 10 10 10 8 7 7 7 7 7 6 6 7
16 17 17 18 17 16 16 17 16 17 16 17 19 18 15 15 14 14 14 14 13 12 12 11 10 10 10 10 10 9 10 10 10 10 10 8 7 7 6 6 6 6 6 6
16 16 17 18 17 17 17 16 17 17 18 18 19 13 14 15 14 15 14 13 12 12 11 11 10 9 9 10 9 9 10 9 9 10 10 8 7 7 7 7 6 6 6 6
16 16 16 17 17 16 17 17 17 17 17 18 18 14 14 12 11 13 13 13 12 12 11 10 10 9 9 9 8 9 8 8 9 9 9 9 8 7 7 7 7 7 7 7
16 16 16 16 17 17 17 17 17 17 16 17 17 16 11 11 11 12 13 12 12 11 11 10 9 9 8 8 9 8 9 9 9 9 9 9 9 8 7 7 7 7 6 6
15 15 15 17 17 16 17 17 17 17 17 17 17 15 14 14 13 13 12 11 11 11 10 9 9 9 8 8 8 8 8 9 9 9 9 9 9 9 9 8 7 7 7 6
14 14 15 16 16 16 17 17 17 17 17 17 17 15 14 15 13 13 11 10 11 11 9 9 9 8 10 9 8 9 9 8 9 9 9 9 9 9 9 8 8 8 8 7
13 13 14 15 15 16 17 17 17 17 17 17 17 13 13 13 12 12 11 10 11 11 9 8 10 10 10 10 10 10 9 9 9 9 9 9 8 8 8 8 8 7 6 6
13 13 13 14 15 16 17 17 17 17 17 17 16 14 12 11 11 12 10 9 10 10 10 10 10 10 10 10 10 9 10 9 9 9 8 8 8 8 7 7 7 7 6 6
12 13 13 14 14 15 15 15 15 15 17 17 15 13 12 13 10 10 9 9 11 11 11 11 10 10 10 10 9 9 9 9 9 8 8 8 8 7 7 6 6 6 6 6
11 11 13 13 14 14 14 15 15 15 15 15 15 13 11 11 8 8 9 9 10 11 11 10 10 10 9 9 9 9 9 9 8 8 7 6 5 7 7 6 5 5 6 6
12 11 11 11 14 14 15 14 13 13 14 14 14 12 12 11 10 10 10 11 11 11 10 10 10 9 9 9 9 9 10 9 8 8 7 8 7 5 5 5 5 5 5 5
11 11 11 12 12 13 13 12 12 13 13 12 12 12 11 11 11 11 11 11 11 10 10 9 9 9 9 9 10 10 10 9 8 7 7 7 5 5 5 5 4 4 4 4
11 11 12 12 12 13 12 12 12 12 11 10 11 11 11 10 10 10 10 10 9 9 9 9 9 9 9 10 10 10 9 8 7 7 6 5 5 4 5 5 4 4 4 4
9 9 11 10 10 11 10 10 11 11 11 10 11 10 10 10 10 10 9 9 8 8 8 8 9 9 9 10 10 9 8 6 6 5 6 5 5 5 4 4 4 4 4 4
7 6 6 8 9 8 7 9 9 9 10 10 10 11 10 9 9 8 8 8 8 8 8 8 9 9 9 9 8 6 5 5 5 5 5 5 5 4 4 4 3 3 3 3
5 5 6 7 7 7 6 7 8 9 9 9 9 9 9 8 8 7 7 7 7 7 8 8 8 8 7 6 6 5 5 4 4 4 5 4 4 3 3 3 3 3 3 3
5 5 5 6 6 5 5 7 7 8 8 8 8 8 7 7 7 7 7 7 7 7 7 7 7 7 5 5 5 4 4 4 4 3 4 4 3 3 3 3 2 2 2 2
Height
3156 3158 3158 3159 3160 3159 3155 3153 3155 3148 3155 3159 3157 3152 3154 3155 3152 3152 3151 3142 3153 3157 3155 3157 3159 3162 3161 3161 3163 3162 3161 3159 3158 3156 3155 3152 3150 3148 3147 3145 3144 3145 3145 3148
3158 3154 3155 3157 3158 3157 3155 3153 3153 3155 3155 3154 3151 3151 3154 3151 3152 3151 3152 3152 3155 3147 3157 3158 3157 3159 3161 3160 3161 3161 3159 3157 3155 3153 3151 3148 3145 3143 3141 3139 3138 3138 3140 3141
3153 3153 3152 3154 3155 3156 3155 3154 3152 3151 3149 3148 3148 3149 3148 3147 3146 3153 3149 3152 3152 3153 3156 3158 3149 3155 3161 3161 3160 3159 3158 3156 3153 3150 3146 3143 3141 3137 3133 3131 3130 3133 3133 3135
3150 3151 3151 3152 3152 3154 3153 3153 3153 3152 3151 3147 3147 3142 3144 3142 3147 3149 3137 3152 3152 3155 3158 3159 3156 3158 3159 3158 3157 3156 3155 3153 3150 3147 3142 3138 3135 3130 3126 3124 3123 3125 3128 3130
3146 3148 3148 3149 3150 3151 3152 3152 3151 3151 3150 3149 3147 3145 3144 3144 3146 3146 3148 3131 3149 3152 3155 3154 3154 3155 3155 3155 3153 3155 3154 3151 3148 3143 3138 3135 3131 3125 3123 3120 3118 3119 3123 3125
3143 3145 3145 3146 3147 3149 3150 3151 3151 3151 3149 3144 3143 3143 3139 3133 3146 3144 3143 3149 3149 3150 3151 3150 3152 3152 3153 3154 3153 3154 3153 3150 3147 3142 3136 3132 3128 3122 3120 3118 3118 3117 3119 3122
3140 3140 3142 3144 3144 3146 3148 3149 3147 3147 3142 3138 3138 3137 3136 3136 3139 3141 3144 3147 3148 3147 3147 3149 3150 3152 3152 3152 3153 3153 3151 3148 3146 3142 3136 3131 3125 3120 3118 3116 3115 3115 3116 3119
3135 3136 3137 3138 3140 3141 3142 3145 3143 3139 3135 3140 3140 3136 3134 3133 3136 3139 3142 3145 3145 3144 3144 3147 3149 3150 3149 3151 3151 3151 3149 3147 3145 3141 3135 3130 3123 3119 3117 3116 3115 3115 3115 3117
3130 3129 3129 3131 3135 3139 3139 3139 3142 3139 3134 3133 3133 3133 3133 3136 3138 3139 3142 3148 3148 3145 3144 3147 3148 3149 3149 3150 3149 3147 3148 3146 3144 3141 3135 3129 3124 3120 3118 3117 3117 3117 3117 3119
3129 3128 3127 3127 3132 3134 3135 3138 3138 3137 3135 3131 3124 3129 3129 3130 3138 3142 3145 3147 3148 3145 3140 3143 3144 3145 3148 3148 3146 3146 3146 3145 3142 3140 3135 3131 3127 3124 3122 3121 3120 3119 3119 3120
3127 3129 3127 3126 3127 3130 3132 3132 3132 3132 3130 3126 3123 3135 3135 3135 3137 3140 3146 3146 3146 3144 3144 3143 3143 3142 3145 3144 3144 3144 3145 3144 3142 3140 3136 3133 3130 3128 3126 3124 3124 3124 3123 3123
3123 3125 3125 3122 3123 3126 3125 3126 3129 3129 3128 3125 3124 3128 3130 3135 3131 3131 3141 3143 3144 3144 3144 3141 3143 3144 3144 3141 3140 3145 3143 3142 3143 3141 3137 3134 3132 3130 3129 3128 3126 3125 3125 3125
3118 3120 3122 3122 3121 3120 3120 3122 3124 3126 3127 3124 3126 3130 3130 3126 3123 3119 3134 3142 3143 3141 3142 3143 3143 3142 3143 3142 3141 3142 3143 3142 3142 3141 3138 3136 3133 3132 3131 3130 3129 3128 3127 3126
3114 3116 3118 3116 3117 3117 3118 3118 3119 3120 3121 3122 3121 3122 3127 3128 3123 3127 3136 3142 3141 3138 3142 3142 3142 3142 3143 3140 3140 3141 3142 3142 3141 3139 3137 3136 3134 3132 3131 3131 3130 3129 3128 3127
3115 3115 3115 3113 3114 3114 3113 3114 3114 3115 3115 3118 3119 3118 3124 3124 3126 3133 3138 3139 3138 3138 3140 3141 3141 3141 3141 3139 3138 3139 3140 3139 3138 3138 3137 3136 3134 3132 3131 3131 3130 3130 3129 3128
3112 3112 3113 3111 3111 3110 3110 3110 3110 3110 3113 3114 3115 3114 3121 3124 3126 3127 3132 3136 3136 3136 3137 3138 3138 3138 3139 3138 3138 3138 3138 3137 3136 3135 3134 3134 3133 3132 3130 3130 3130 3130 3129 3129
3107 3109 3111 3109 3109 3107 3105 3107 3107 3108 3111 3112 3110 3112 3115 3120 3126 3131 3132 3133 3134 3133 3133 3134 3135 3135 3136 3136 3136 3136 3136 3136 3134 3133 3132 3131 3132 3132 3130 3129 3129 3129 3129 3129
3103 3106 3107 3106 3107 3103 3102 3102 3103 3104 3108 3112 3107 3106 3111 3110 3118 3127 3129 3131 3129 3129 3129 3130 3131 3131 3133 3134 3134 3135 3133 3132 3130 3129 3129 3127 3129 3129 3128 3127 3127 3128 3128 3129
3101 3105 3105 3104 3103 3102 3103 3099 3102 3108 3108 3110 3110 3102 3107 3108 3122 3123 3123 3126 3124 3124 3125 3126 3128 3129 3130 3130 3130 3130 3129 3128 3126 3125 3125 3124 3124 3125 3125 3126 3126 3127 3128 3129
3099 3102 3104 3104 3100 3099 3099 3098 3102 3105 3106 3107 3109 3106 3107 3112 3117 3119 3119 3119 3119 3120 3122 3123 3124 3125 3126 3126 3125 3123 3122 3120 3119 3118 3119 3119 3120 3123 3124 3125 3125 3125 3126 3127
3093 3096 3096 3098 3098 3097 3095 3095 3098 3102 3105 3101 3100 3104 3107 3110 3113 3115 3115 3116 3116 3117 3118 3119 3120 3121 3121 3120 3119 3117 3115 3113 3113 3113 3115 3116 3118 3120 3121 3122 3121 3122 3124 3123
3084 3088 3091 3094 3095 3094 3094 3093 3097 3094 3095 3094 3097 3100 3102 3105 3108 3109 3111 3112 3113 3113 3114 3115 3116 3116 3116 3115 3113 3110 3108 3107 3108 3109 3110 3112 3115 3117 3116 3118 3119 3120 3121 3120
3082 3082 3085 3088 3087 3085 3086 3085 3087 3088 3089 3090 3094 3098 3101 3103 3104 3105 3106 3108 3109 3110 3110 3111 3111 3111 3110 3108 3105 3103 3103 3104 3105 3106 3108 3110 3111 3114 3115 3115 3115 3116 3115 3116
3077 3079 3082 3086 3084 3081 3081 3079 3080 3083 3087 3087 3089 3094 3094 3096 3098 3101 3103 3104 3105 3106 3106 3106 3106 3105 3103 3101 3100 3100 3100 3102 3104 3105 3106 3108 3109 3111 3110 3111 3112 3113 3113 3113
3072 3074 3078 3078 3076 3077 3063 3078 3077 3081 3085 3086 3085 3089 3090 3091 3094 3096 3100 3101 3101 3102 3102 3102 3101 3100 3099 3098 3098 3098 3099 3101 3103 3104 3104 3104 3106 3107 3108 3108 3109 3110 3110 3111
3076 3078 3076 3079 3074 3074 3078 3075 3078 3078 3080 3081 3083 3085 3087 3088 3089 3092 3095 3097 3098 3098 3097 3097 3096 3096 3097 3099 3099 3099 3100 3102 3103 3104 3105 3104 3105 3106 3107 3107 3108 3108 3109 3108
Wind_Speed
11 13 17 16 17 17 23 22 17 12 1 9 10 8 9 9 8 11 15 20 13 8 11 15 11 10 15 14 11 13 17 20 21 19 21 21 23 23 24 25 25 24 20 23
14 18 17 16 17 19 19 20 19 14 12 10 12 13 13 16 20 7 11 10 5 4 7 15 21 13 15 18 17 14 19 17 17 19 21 25 25 25 22 29 25 23 21 19
17 9 9 17 18 18 18 17 17 16 15 11 15 18 19 15 15 15 8 6 4 6 10 14 19 12 15 14 18 14 13 15 17 19 24 25 25 24 29 26 22 22 20 21
20 18 19 11 19 16 18 14 14 15 15 18 12 17 19 12 8 11 20 9 8 8 7 8 18 18 8 10 18 14 12 15 16 20 22 22 24 26 20 20 21 27 23 20
21 16 19 21 14 14 18 11 10 11 17 18 20 18 4 8 8 12 13 17 4 8 7 16 21 16 9 12 17 11 13 17 20 19 18 18 22 19 16 14 12 17 21 16
20 15 15 16 18 15 14 15 12 15 18 19 21 21 16 4 15 3 7 2 10 8 15 21 15 14 9 16 12 8 12 18 23 20 17 19 19 17 14 12 10 10 17 20
21 22 17 14 15 16 15 15 15 14 14 14 17 25 22 16 10 7 10 9 10 14 13 14 15 6 15 16 5 7 10 19 26 26 17 18 17 18 11 11 8 10 11 14
21 21 22 22 20 19 21 18 21 15 7 4 7 9 18 6 8 3 8 11 13 12 13 11 8 9 15 5 3 6 15 23 21 21 17 20 20 15 9 8 7 6 4 9
20 23 12 22 19 18 17 20 21 25 29 14 18 21 13 11 7 3 9 12 11 14 13 9 8 7 6 7 7 9 10 13 17 18 18 19 17 19 13 7 8 3 1 4
23 20 14 14 17 18 21 17 14 21 16 16 15 12 15 12 10 5 9 13 11 16 17 12 8 11 8 10 10 7 9 10 16 15 18 16 13 21 16 10 10 8 3 3
22 21 16 16 19 19 19 22 22 18 21 14 11 6 12 10 20 11 12 14 15 17 14 10 12 13 10 9 11 9 8 6 14 14 17 16 15 16 19 14 13 13 13 9
21 16 23 18 16 15 20 20 23 20 19 23 16 5 5 3 9 28 16 14 14 13 10 13 8 13 10 7 11 6 15 19 11 10 16 16 12 10 11 11 14 16 11 10
22 19 20 18 18 18 19 20 21 21 24 23 13 5 11 4 7 23 17 14 14 16 12 10 8 5 4 10 9 9 8 9 5 10 12 13 14 11 8 4 6 9 7 7
13 15 20 24 17 10 15 17 19 23 23 24 25 11 2 11 5 3 11 14 18 17 10 10 8 8 5 9 10 5 3 6 7 9 11 12 12 12 11 8 6 6 8 7
16 20 20 25 19 15 18 22 20 23 26 21 21 10 21 17 26 18 11 16 19 14 17 17 13 10 5 6 7 6 6 8 12 11 11 11 13 10 8 8 7 9 6 5
19 22 19 23 21 21 18 16 12 16 19 25 21 12 11 10 6 18 21 22 15 11 9 12 12 7 4 4 3 5 6 10 12 14 17 14 12 13 11 5 5 5 2 1
22 21 22 24 21 21 24 18 19 21 19 18 12 4 17 15 7 19 16 13 10 12 15 12 12 12 10 7 6 8 10 12 16 16 16 19 15 15 14 8 4 4 2 2
10 22 19 24 21 18 25 22 11 15 17 18 7 4 7 17 24 17 18 16 14 11 10 12 14 14 13 11 11 12 15 17 18 20 18 18 18 16 15 11 6 7 5 5
14 13 17 23 23 20 7 13 23 21 15 9 5 4 12 17 25 24 25 20 15 10 9 11 13 14 14 14 17 19 19 19 21 21 19 18 18 14 12 10 10 9 11 11
23 21 18 18 20 20 21 12 14 9 10 9 7 8 15 15 12 12 12 8 8 9 11 13 14 15 16 18 19 23 25 24 22 24 22 23 16 12 13 15 15 14 13 13
28 28 29 27 21 22 8 10 10 14 9 9 8 11 16 20 19 13 14 14 12 12 12 13 13 15 17 19 23 24 24 22 18 19 18 20 19 14 15 16 13 13 12 13
30 31 29 25 28 31 11 13 15 12 12 10 14 17 16 15 14 17 18 17 15 12 10 12 14 17 20 24 26 25 21 16 11 11 15 15 17 11 18 16 17 18 18 17
22 15 20 12 16 19 17 21 19 20 17 17 19 15 16 17 19 19 17 14 12 11 12 14 16 19 21 23 22 16 11 7 7 8 11 12 17 15 17 18 15 18 14 10
14 12 23 19 18 15 14 15 11 11 18 19 20 22 19 15 13 12 11 11 12 13 15 17 19 18 17 16 12 8 4 5 5 6 9 11 13 15 18 14 10 13 13 9
6 6 7 22 29 31 15 5 12 12 14 18 20 17 14 12 12 12 11 12 13 15 15 14 15 16 12 6 6 2 2 3 4 5 9 7 8 8 7 9 8 9 8 10
6 11 7 11 12 11 16 13 21 21 16 18 15 12 12 13 13 10 9 10 11 12 12 12 10 8 2 1 2 1 4 3 4 3 4 5 3 4 7 9 5 4 5 5
Wind_Direction
261 225 226 231 239 253 275 290 310 232 276 276 283 286 285 267 212 233 230 211 179 194 249 261 282 285 267 297 308 317 321 318 317 315 316 308 302 297 294 287 281 275 275 249
221 240 237 242 247 254 267 281 285 285 279 270 294 289 288 292 244 298 258 241 226 295 211 248 265 286 276 285 312 306 321 321 315 311 311 303 298 297 287 287 271 269 265 264
228 234 246 239 243 250 258 265 276 280 296 265 278 277 270 249 268 251 201 252 266 243 250 231 248 281 266 279 310 319 321 326 317 312 303 304 303 298 297 292 260 249 261 264
239 247 246 254 243 241 254 253 261 272 279 278 285 291 280 199 251 180 283 221 206 217 200 209 227 245 269 319 310 303 340 335 326 310 307 307 314 311 301 298 265 250 257 247
241 239 242 239 245 238 244 253 261 262 268 273 269 272 43 98 173 209 287 258 154 196 190 208 238 239 269 265 289 317 341 346 338 327 320 311 322 316 308 316 308 250 233 240
244 236 242 242 241 240 237 247 250 267 265 263 255 258 240 298 221 103 108 167 179 178 199 224 245 216 297 268 280 329 349 354 348 337 336 327 327 335 303 310 304 277 245 240
236 239 238 239 234 227 229 239 238 247 239 246 285 241 259 144 122 94 149 169 175 182 240 248 223 216 302 284 290 333 9 359 347 347 343 339 340 340 326 322 290 287 255 232
224 238 228 231 229 230 225 236 237 247 237 273 270 347 296 169 200 171 159 170 180 208 265 271 247 272 286 227 285 329 335 333 324 341 353 354 353 9 356 354 336 324 282 227
250 248 237 226 220 227 233 226 241 263 279 252 207 238 183 177 134 146 153 174 183 222 245 271 230 220 260 234 283 325 334 331 334 346 6 13 19 17 7 24 19 13 92 215
240 270 264 226 217 232 238 231 237 242 263 275 259 227 156 133 126 145 169 181 178 209 255 285 192 253 284 240 298 315 323 323 338 347 18 22 26 26 35 48 49 50 73 119
233 247 260 242 218 233 226 238 242 249 236 250 271 58 0 236 304 210 211 185 179 216 238 280 197 248 303 270 295 299 304 325 345 344 21 32 45 57 51 43 33 52 37 29
222 236 242 254 232 239 238 234 229 242 249 262 280 190 203 257 290 193 195 181 174 219 249 232 239 283 297 295 306 337 304 263 320 356 17 26 34 20 39 48 65 55 21 16
225 222 247 249 253 221 219 232 229 233 263 279 290 196 141 114 299 183 173 178 173 208 230 239 255 271 200 268 308 321 349 29 1 0 12 11 26 28 12 351 354 5 19 11
223 242 223 242 235 316 227 237 241 242 233 247 251 187 341 249 252 74 155 175 187 209 220 212 225 224 232 272 298 295 273 319 337 331 349 351 7 21 20 5 348 347 1 15
240 247 245 244 260 267 248 245 229 244 240 252 273 251 254 248 218 224 226 191 199 208 199 213 206 235 250 276 298 292 262 307 329 325 319 325 339 351 6 11 348 330 349 14
225 236 245 253 258 248 240 247 250 238 242 248 262 158 178 188 311 180 206 218 201 196 218 210 222 250 239 262 268 268 285 307 318 310 305 312 312 320 326 331 332 316 344 336
219 226 235 251 247 254 265 246 254 249 255 268 292 162 167 116 106 200 199 197 189 217 225 226 238 241 239 253 279 299 308 300 300 306 292 295 298 298 298 297 294 275 298 262
217 235 244 250 254 264 257 269 225 303 248 251 233 240 258 283 186 172 208 189 224 228 230 238 248 252 256 266 286 295 293 291 294 295 294 289 290 288 276 278 266 258 267 265
239 247 242 247 255 262 276 246 228 273 249 249 283 177 160 136 155 175 198 206 218 268 276 263 254 255 260 276 290 297 296 288 281 275 277 269 269 285 280 249 262 262 281 283
230 240 243 249 246 252 255 140 184 222 251 242 191 181 207 209 187 216 215 234 258 263 268 268 267 260 273 287 297 302 300 293 276 268 251 270 277 284 258 257 264 261 265 275
224 228 234 242 253 258 243 195 186 213 207 196 195 206 211 226 233 255 270 279 274 277 272 272 265 273 286 295 298 299 300 290 275 268 266 273 259 267 263 266 254 262 265 276
212 215 224 237 237 247 244 226 225 220 206 186 202 198 220 240 263 270 273 275 277 268 261 262 271 282 291 297 299 297 290 279 266 269 249 253 249 255 248 260 259 268 268 274
229 217 231 223 226 240 231 215 210 216 225 234 248 240 245 254 265 270 271 270 265 263 267 274 283 291 296 299 301 291 280 270 266 255 256 256 241 249 262 262 266 283 267 269
218 221 224 242 234 224 210 185 176 204 230 246 260 270 276 274 267 267 265 264 267 272 281 289 293 295 300 303 299 290 263 250 238 231 234 240 252 262 265 258 272 264 276 254
309 280 229 248 256 252 311 174 211 241 256 254 262 262 261 255 261 266 266 264 272 279 280 287 300 307 305 307 318 307 327 262 238 216 229 206 232 260 261 260 254 267 247 262
290 261 230 279 252 228 259 256 274 255 233 241 249 245 244 254 259 260 268 271 269 270 279 291 297 293 249 306 74 244 228 219 148 154 220 245 221 198 221 258 256 264 278 287